Location: Kennington
(51.1500°N, 0.8833°E)
Time: 11:11:15
(UTC+00:00)

Lacrosse 5 - Pass Details

Date: 21 September 2020
Orbit: 716 x 723 km, 57.0° (Epoch: 28 October)

Event Time Altitude Azimuth Distance (km) Brightness Sun altitude
Exits shadow 04:43:54 12° 273° (W) 2,087 3.6 -9.8°
Maximum altitude 04:48:30 49° 347° (NNW) 932 2.5 -9.1°
Drops below altitude 10° 04:53:26 10° 62° (ENE) 2,212 5.8 -8.3°
Sets 04:55:55 0° 68° (ENE) 3,135 7.2 -7.9°
